BLOCK DM-SL R/B

基本信息
目录编号:
27953
目录名称:
BLOCK DM-SL R/B
国际标识:
2003-044B
轨道中心:
EARTH
物体状态:
在轨
发射日期:
2003-10-01 UTC
国别:
(SEAL)
轨道信息
数据来源: 国际轨道数据
星历时间: 2026-07-13T17:58:27+0800
半长轴: 25403.215km
偏心率: 0.6599118
轨道倾角: 0.733°
近地点辐角: 312.295°
升交点赤经: 328.666°
平近点角: 16.110°
近地点: 2261.196km
远地点: 35788.96km
周期: 671.572分钟
每日圈数: 2.144222
详细信息
发射场:
SEAL
轨道高度:
MEO
数据来源:
AOE Integration Group
参考系:
TEME
时间系统:
UTC
历元类型:
SGP4
2D轨道图
3D轨道图
轨道高度分析图
轨道倾角分析图
轨道综合分析图
查看轨道综合分析图